User: anonymous   Login
Location: The D'Auria's Ocala Star Observatory
(29.0276°N, 82.1742°W)
Time: 19:11:01
(UTC-04:00)
Language:

Abrixas rocket - Orbit

View from above orbital plane
View from above orbital plane
View from above satellite
View from above satellite

Ground track
Ground track

The orbit data is extracted from the following two-line orbital elements,

1 25723U 99022C   15247.50155182  .00009393  00000-0  22259-3 0  9994
2 25723  48.4212  14.7009 0013028 160.4601 239.1148 15.42269298905476
Epoch (UTC): 04 September 2015 12:02:14
Eccentricity: 0.0013028
inclination: 48.4212°
perigee height: 430 km
apogee height: 448 km
right ascension of ascending node: 14.7009°
argument of perigee: 160.4601°
revolutions per day: 15.42269298
mean anomaly at epoch: 239.1148°
orbit number at epoch: 90547

The dashed part of the orbit path shows where the satellite is in the earth's shadow,  

DLR